Owosso, MI

3:21 AM EDT on June 25, 2017 (GMT -0400)
Owosso

Weather History for KRNP - February, 2014

Change the Weather History Date:

Tuesday, February 18, 2014

  Actual Average (KFNT) Record (KFNT)
Temperature  
Mean Temperature 28 °F -  
Max Temperature 42 °F 34 °F 65 °F (2017)
Min Temperature 15 °F 19 °F -11 °F (1936)
Degree Days  
Heating Degree Days 36    
Moisture  
Dew Point 20 °F    
Average Humidity 75    
Maximum Humidity 94    
Minimum Humidity 52    
Precipitation  
Precipitation 0.00 in - - ()
Sea Level Pressure  
Sea Level Pressure 29.79 in    
Wind  
Wind Speed 9 mph (SW)    
Max Wind Speed 17 mph    
Max Gust Speed 24 mph    
Visibility 9 miles    
Events Snow    
Averages and records for this station are not official NWS values.
T = Trace of Precipitation, MM = Missing Value Source: NWS Daily Summary

Daily Weather History Graph

Daily Weather History Graph

Search for Another Location

Airport or City:

Trip Planner

Search our weather history database for the weather conditions in past years. The results will help you decide how hot, cold, wet, or windy it might be!

Date:

Astronomy

Feb. 18, 2014 Rise Set
Actual Time 7:29 AM EST 6:11 PM EST
Civil Twilight 7:00 AM EST 6:40 PM EST
Nautical Twilight 6:27 AM EST 7:13 PM EST
Astronomical Twilight 5:54 AM EST 7:46 PM EST
Moon 10:11 PM EST (2/18) 8:55 AM EST (2/18)
Length of Visible Light 11h 40m
Length of Day
10h 42m
Waning Gibbous, 87% of the Moon is Illuminated
Feb 18
Waning Gibbous
Feb 22
Last Quarter
Mar 1
New
Mar 8
First Quarter
Mar 16
Full

Hourly Weather History & Observations

Time (EST) Temp. Windchill Dew Point Humidity Pressure Visibility Wind Dir Wind Speed Gust Speed Precip Events Conditions
12:14 AM 18.5 °F 11.7 °F 16.9 °F 93% 29.62 in 4.0 mi NW 4.6 mph - N/A Snow Light Snow
12:35 AM 17.8 °F 10.9 °F 16.3 °F 94% 29.63 in 4.0 mi NW 4.6 mph - N/A Snow Light Snow
12:54 AM 18.0 °F 11.1 °F 16.5 °F 94% 29.63 in 3.0 mi WNW 4.6 mph - N/A Snow Light Snow
1:15 AM 18.0 °F 9.8 °F 16.5 °F 94% 29.63 in 2.0 mi WNW 5.8 mph - N/A Snow Light Snow
1:35 AM 18.0 °F 9.8 °F 16.2 °F 93% 29.64 in 3.0 mi WNW 5.8 mph - N/A Snow Light Snow
1:54 AM 17.6 °F 8.2 °F 15.8 °F 93% 29.65 in 7.0 mi WNW 6.9 mph - N/A Snow Light Snow
2:15 AM 17.6 °F 8.2 °F 15.8 °F 93% 29.66 in 5.0 mi West 6.9 mph - N/A Snow Light Snow
2:34 AM 17.4 °F 7.1 °F 15.6 °F 93% 29.68 in 10.0 mi WNW 8.1 mph - N/A   Overcast
2:55 AM 16.9 °F 4.8 °F 15.1 °F 93% 29.69 in 5.0 mi WNW 10.4 mph - N/A Snow Light Snow
3:15 AM 16.2 °F 3.9 °F 14.0 °F 91% 29.71 in 10.0 mi West 10.4 mph - N/A Snow Light Snow
3:34 AM 15.8 °F 3.4 °F 13.8 °F 92% 29.73 in 2.5 mi West 10.4 mph - N/A Snow Light Snow
3:55 AM 15.8 °F 2.7 °F 13.8 °F 92% 29.74 in 1.5 mi West 11.5 mph - N/A Snow Light Snow
4:15 AM 15.8 °F 2.7 °F 13.8 °F 92% 29.76 in 3.0 mi West 11.5 mph - N/A Snow Light Snow
4:34 AM 16.3 °F 3.4 °F 14.0 °F 90% 29.77 in 4.0 mi West 11.5 mph - N/A Snow Light Snow
4:55 AM 16.3 °F 2.1 °F 13.8 °F 90% 29.79 in 7.0 mi West 13.8 mph 19.6 mph N/A Snow Light Snow
5:15 AM 16.2 °F 1.3 °F 13.6 °F 90% 29.81 in 10.0 mi West 15.0 mph - N/A   Mostly Cloudy
5:34 AM 16.2 °F 3.2 °F 13.3 °F 88% 29.81 in 10.0 mi West 11.5 mph - N/A   Overcast
5:55 AM 15.6 °F 2.5 °F 12.7 °F 88% 29.82 in 10.0 mi West 11.5 mph - N/A   Mostly Cloudy
6:15 AM 16.5 °F 3.6 °F 13.5 °F 88% 29.84 in 10.0 mi West 11.5 mph - N/A   Mostly Cloudy
6:34 AM 15.6 °F 2.5 °F 12.4 °F 87% 29.85 in 10.0 mi West 11.5 mph - N/A   Scattered Clouds
6:55 AM 15.3 °F 2.8 °F 12.4 °F 88% 29.86 in 10.0 mi WSW 10.4 mph - N/A   Clear
7:14 AM 15.3 °F 1.4 °F 12.7 °F 90% 29.87 in 10.0 mi West 12.7 mph - N/A   Clear
7:35 AM 15.8 °F 1.4 °F 13.3 °F 90% 29.88 in 10.0 mi West 13.8 mph - N/A   Clear
7:54 AM 16.0 °F 3.6 °F 13.6 °F 90% 29.89 in 10.0 mi West 10.4 mph - N/A   Clear
8:14 AM 16.5 °F 4.3 °F 14.0 °F 90% 29.90 in 10.0 mi West 10.4 mph - N/A   Clear
8:35 AM 17.6 °F 7.3 °F 14.5 °F 88% 29.91 in 10.0 mi WSW 8.1 mph - N/A   Clear
8:54 AM 18.5 °F 7.5 °F 14.9 °F 86% 29.92 in 10.0 mi WSW 9.2 mph - N/A   Clear
9:15 AM 20.1 °F 8.8 °F 15.8 °F 83% 29.93 in 10.0 mi West 10.4 mph - N/A   Clear
9:35 AM 21.2 °F 10.1 °F 16.3 °F 82% 29.93 in 10.0 mi West 10.4 mph - N/A   Clear
9:54 AM 22.8 °F 12.2 °F 16.7 °F 77% 29.93 in 10.0 mi WSW 10.4 mph - N/A   Clear
10:15 AM 24.1 °F 16.0 °F 17.1 °F 75% 29.94 in 10.0 mi WSW 6.9 mph 10.4 mph N/A   Clear
10:35 AM 25.2 °F 15.7 °F 17.2 °F 72% 29.94 in 10.0 mi WSW 9.2 mph - N/A   Clear
10:54 AM 26.1 °F 15.6 °F 17.8 °F 71% 29.94 in 7.0 mi WSW 11.5 mph - N/A   Scattered Clouds
11:15 AM 26.2 °F 16.4 °F 19.2 °F 75% 29.96 in 10.0 mi WSW 10.4 mph 17.3 mph N/A   Mostly Cloudy
11:34 AM 26.6 °F 16.2 °F 19.4 °F 74% 29.95 in 10.0 mi SW 11.5 mph - N/A   Mostly Cloudy
11:55 AM 27.9 °F 19.8 °F 20.1 °F 73% 29.94 in 10.0 mi WSW 8.1 mph - N/A   Scattered Clouds
12:15 PM 29.3 °F 20.2 °F 20.7 °F 70% 29.94 in 10.0 mi SW 10.4 mph 16.1 mph N/A   Clear
12:34 PM 29.8 °F 20.3 °F 20.8 °F 69% 29.93 in 10.0 mi SSW 11.5 mph - N/A   Clear
12:55 PM 30.2 °F 20.8 °F 20.8 °F 68% 29.92 in 10.0 mi South 11.5 mph - N/A   Clear
1:14 PM 30.7 °F 21.4 °F 21.0 °F 67% 29.91 in 10.0 mi South 11.5 mph - N/A   Clear
1:34 PM 31.5 °F 22.9 °F 21.2 °F 66% 29.90 in 10.0 mi South 10.4 mph 16.1 mph N/A   Clear
1:55 PM 31.6 °F 22.1 °F 21.2 °F 65% 29.88 in 10.0 mi SSW 12.7 mph - N/A   Clear
2:14 PM 32.0 °F 23.0 °F 21.0 °F 64% 29.87 in 10.0 mi South 11.5 mph - N/A   Clear
2:35 PM 32.5 °F 23.7 °F 21.0 °F 63% 29.86 in 10.0 mi South 11.5 mph 16.1 mph N/A   Clear
2:55 PM 33.8 °F 24.3 °F 21.6 °F 61% 29.85 in 10.0 mi South 13.8 mph - N/A   Clear
3:14 PM 33.8 °F 26.4 °F 21.2 °F 60% 29.84 in 10.0 mi South 9.2 mph 16.1 mph N/A   Clear
3:35 PM 35.1 °F 29.3 °F 21.2 °F 57% 29.83 in 10.0 mi SSE 6.9 mph - N/A   Clear
3:55 PM 35.6 °F 28.0 °F 21.2 °F 56% 29.82 in 10.0 mi SSE 10.4 mph - N/A   Clear
4:14 PM 35.8 °F 29.4 °F 21.2 °F 55% 29.80 in 10.0 mi SSE 8.1 mph - N/A   Clear
4:35 PM 36.5 °F 29.7 °F 21.4 °F 54% 29.78 in 10.0 mi SSE 9.2 mph - N/A   Clear
4:55 PM 36.0 °F 28.5 °F 21.6 °F 56% 29.76 in 10.0 mi SSE 10.4 mph - N/A   Clear
5:14 PM 35.8 °F 26.9 °F 21.0 °F 55% 29.77 in 10.0 mi SSE 13.8 mph 19.6 mph N/A   Clear
5:35 PM 34.7 °F 25.1 °F 21.0 °F 57% 29.75 in 10.0 mi SSE 15.0 mph 20.7 mph N/A   Clear
5:54 PM 34.2 °F 24.4 °F 22.3 °F 62% 29.75 in 10.0 mi SSE 15.0 mph 18.4 mph N/A   Clear
6:15 PM 34.2 °F 24.8 °F 23.7 °F 66% 29.74 in 10.0 mi SSE 13.8 mph 18.4 mph N/A   Clear
6:35 PM 34.3 °F 25.9 °F 25.0 °F 69% 29.74 in 10.0 mi South 11.5 mph 19.6 mph N/A   Clear
6:54 PM 34.3 °F 25.9 °F 26.1 °F 72% 29.74 in 10.0 mi SSE 11.5 mph 19.6 mph N/A   Scattered Clouds
7:15 PM 35.1 °F 26.9 °F 26.8 °F 72% 29.74 in 10.0 mi South 11.5 mph 18.4 mph N/A   Scattered Clouds
7:35 PM 36.0 °F 27.5 °F 27.5 °F 71% 29.73 in 10.0 mi South 12.7 mph 20.7 mph N/A   Scattered Clouds
7:54 PM 37.2 °F 27.9 °F 27.5 °F 68% 29.71 in 10.0 mi South 16.1 mph 24.2 mph N/A   Scattered Clouds
8:15 PM 38.3 °F 29.0 °F 27.5 °F 65% 29.71 in 10.0 mi South 17.3 mph 24.2 mph N/A   Scattered Clouds
8:35 PM 38.5 °F 30.3 °F 27.5 °F 65% 29.70 in 10.0 mi South 13.8 mph 23.0 mph N/A   Scattered Clouds
8:54 PM 38.7 °F 30.1 °F 27.5 °F 64% 29.69 in 10.0 mi South 15.0 mph 20.7 mph N/A   Scattered Clouds
9:15 PM 39.2 °F 31.6 °F 27.3 °F 62% 29.69 in 10.0 mi South 12.7 mph 19.6 mph N/A   Clear
9:34 PM 39.6 °F 33.0 °F 27.3 °F 62% 29.67 in 10.0 mi South 10.4 mph 18.4 mph N/A   Scattered Clouds
9:55 PM 39.6 °F 32.1 °F 27.3 °F 62% 29.67 in 10.0 mi South 12.7 mph 18.4 mph N/A   Clear
10:15 PM 39.4 °F 32.3 °F 27.5 °F 62% 29.66 in 10.0 mi South 11.5 mph - N/A   Clear
10:34 PM 39.2 °F 33.0 °F 27.5 °F 63% 29.65 in 10.0 mi South 9.2 mph - N/A   Clear
10:55 PM 39.2 °F 33.0 °F 27.3 °F 62% 29.64 in 10.0 mi SSW 9.2 mph - N/A   Clear
11:15 PM 40.5 °F 33.6 °F 26.6 °F 58% 29.64 in 10.0 mi SSW 11.5 mph - N/A   Clear
11:35 PM 42.8 °F 35.8 °F 26.2 °F 52% 29.62 in 10.0 mi SSW 13.8 mph 17.3 mph N/A   Clear
11:55 PM 42.8 °F 35.4 °F 26.4 °F 52% 29.62 in 10.0 mi SSW 15.0 mph 21.9 mph N/A   Clear